Location: State Camp
(41.2367°N, 77.7828°W)
Time: 08:13:47
(UTC-04:00)

Amateur Radio Satellites - All Passes

Search period start: 21 August 2017 07:43
Search period end: 22 August 2017 07:43
Location: State Camp, 41.2367°N, 77.7828°W

Satellite Date Start Highest point End Downlink Frequencies (MHz)
Time Altitude Azimuth
DOVE 4 21 Aug 07:45:48 07:49:13 21° 295° (WNW) 07:52:30 437.250
NO-84 21 Aug 07:48:29 07:50:52 21° 31° (NNE) 07:53:22 435.350 FM
XW-2A 21 Aug 07:54:12 07:55:55 13° 93° (E) 07:57:38 145.665 - 145.685
KAITUO 1B 21 Aug 07:56:06 07:59:47 47° 286° (WNW) 08:03:26 145.475/437.950
CUTE 1.7 + AOD 2 21 Aug 07:57:54 08:01:53 36° 97° (E) 08:05:50 437.475
STRAND 1 21 Aug 08:01:14 08:06:20 70° 258° (WSW) 08:11:26 437.568
HO-68 21 Aug 08:01:53 08:08:42 45° 99° (E) 08:15:29 435.675
PCSat 21 Aug 08:04:21 08:09:43 57° 57° (ENE) 08:15:02 145.827
UWE-3 21 Aug 08:05:13 08:07:11 13° 91° (E) 08:09:10 435.000/436.395/437.385
SO-50 21 Aug 08:06:12 08:10:40 52° 53° (NE) 08:15:10 436.795
CUBEBUG 2 21 Aug 08:11:43 08:15:17 26° 96° (E) 08:18:53 437.445
LilacSat-2 21 Aug 08:20:09 08:22:55 19° 292° (WNW) 08:25:41 437.200
XW-2D 21 Aug 08:24:09 08:26:45 18° 293° (WNW) 08:29:21 145.860 - 145.880
NUDT-PHONESAT 21 Aug 08:29:09 08:31:57 20° 292° (WNW) 08:34:45 437.300
XW-2B 21 Aug 08:35:42 08:37:43 14° 295° (WNW) 08:39:45 145.730 - 145.750
ZACube-1 21 Aug 08:43:25 08:46:31 19° 93° (E) 08:49:38 437.345
SEEDS 21 Aug 08:45:00 08:49:17 78° 102° (ESE) 08:53:32 437.485
CUTE-I 21 Aug 08:49:04 08:53:16 25° 296° (WNW) 08:57:29 437.470
FO-29 21 Aug 08:52:35 08:59:30 41° 68° (ENE) 09:05:49 435.910
AO-73 21 Aug 09:03:55 09:07:39 28° 96° (E) 09:11:27 145.935
TIGRISAT 21 Aug 09:18:55 09:21:50 18° 66° (ENE) 09:24:45 435.000
NO-84 21 Aug 09:25:24 09:28:20 39° 226° (SW) 09:31:29 435.350 FM
XW-2A 21 Aug 09:25:40 09:28:44 31° 288° (WNW) 09:31:47 145.665 - 145.685
AAUSAT CUBESAT 2 21 Aug 09:29:38 09:33:49 73° 285° (WNW) 09:37:58 437.432
ISS 21 Aug 09:33:48 09:35:47 15° 131° (SE) 09:37:48 437.550
CUTE 1.7 + AOD 2 21 Aug 09:34:18 09:37:28 20° 293° (WNW) 09:40:36 437.475
UWE-3 21 Aug 09:39:47 09:43:56 54° 286° (WNW) 09:48:10 435.000/436.395/437.385
nSIGHT-1 21 Aug 09:41:18 09:43:41 19° 133° (SE) 09:46:05 .
SO-50 21 Aug 09:47:41 09:50:43 18° 250° (WSW) 09:53:48 436.795
Oscar 11 21 Aug 09:48:19 09:52:41 65° 101° (ESE) 09:56:59 .
CUBEBUG 2 21 Aug 09:48:19 09:51:50 26° 291° (WNW) 09:55:22 437.445
PCSat 21 Aug 09:48:48 09:52:37 20° 254° (WSW) 09:56:27 145.827
HO-68 21 Aug 09:49:53 09:56:14 36° 297° (WNW) 10:02:37 435.675
Tancredo 1 21 Aug 09:54:16 09:57:11 79° 328° (NNW) 10:00:06 437.200
O/OREOS (USA 219) 21 Aug 10:08:07 10:12:34 84° 111° (ESE) 10:17:04 437.305
Max Valier Satellite 21 Aug 10:15:03 10:17:54 21° 95° (E) 10:20:45 145.860
PRISM 21 Aug 10:17:40 10:21:46 60° 73° (ENE) 10:25:53 437.425
UNISAT 6 21 Aug 10:18:48 10:23:10 88° 76° (ENE) 10:27:28 437.425
ZACube-1 21 Aug 10:18:56 10:22:53 37° 288° (WNW) 10:26:54 437.345
SEEDS 21 Aug 10:23:56 10:24:19 10° 298° (WNW) 10:24:41 437.485
DELFI C3 21 Aug 10:32:08 10:35:59 46° 99° (E) 10:39:47 145.870
AIST 2D 21 Aug 10:36:46 10:38:15 12° 66° (ENE) 10:39:45 435.315
FO-29 21 Aug 10:37:20 10:44:26 41° 262° (W) 10:50:59 435.910
AO-73 21 Aug 10:40:16 10:43:47 25° 291° (WNW) 10:47:21 145.935
POLYITAN 1 21 Aug 10:53:57 10:54:54 11° 62° (ENE) 10:55:50 437.675
TIGRISAT 21 Aug 10:54:09 10:58:14 40° 261° (W) 11:02:17 435.000
RS-15 21 Aug 11:06:49 11:18:24 53° 111° (ESE) 11:30:08 29.354- 29.394
QB50P2 21 Aug 11:07:10 11:09:51 17° 65° (ENE) 11:12:34 145.880/145.840
EO-88 21 Aug 11:07:38 11:11:19 77° 102° (ESE) 11:14:59 145.990 - 145.960
EO-79 21 Aug 11:07:56 11:10:26 16° 65° (ENE) 11:12:56 145.935-145.965
ISS 21 Aug 11:08:41 11:11:56 61° 327° (NNW) 11:15:12 437.550
M-CUBED/EXP-1 PRIME 21 Aug 11:10:00 11:14:19 47° 67° (ENE) 11:18:47 437.505
nSIGHT-1 21 Aug 11:16:39 11:19:50 49° 329° (NNW) 11:23:01 .
Oscar 11 21 Aug 11:26:26 11:28:14 12° 297° (WNW) 11:30:03 .
Tancredo 1 21 Aug 11:30:49 11:32:45 16° 343° (NNW) 11:34:42 437.200
DUCHIFAT 1 21 Aug 11:36:26 11:39:49 24° 68° (ENE) 11:43:13 145.980
Max Valier Satellite 21 Aug 11:48:37 11:51:41 25° 290° (WNW) 11:54:44 145.860
O/OREOS (USA 219) 21 Aug 11:51:08 11:52:37 11° 310° (NW) 11:54:08 437.305
PRISM 21 Aug 11:56:09 11:57:24 11° 270° (W) 11:58:39 437.425
AIST 2D 21 Aug 12:07:49 12:11:04 38° 262° (W) 12:14:23 435.315
DELFI C3 21 Aug 12:08:15 12:10:21 14° 295° (WNW) 12:12:25 145.870
NANOSAT C BR1 21 Aug 12:20:44 12:24:56 89° 72° (ENE) 12:29:08 145.865
POLYITAN 1 21 Aug 12:25:53 12:30:04 71° 258° (WSW) 12:34:16 437.675
ESTCUBE 1 21 Aug 12:28:40 12:33:08 54° 100° (E) 12:37:34 437.505/2401.250
VELOX 1 21 Aug 12:35:35 12:37:18 12° 90° (E) 12:39:00 145.980
LO-87 21 Aug 12:36:14 12:39:44 64° 284° (WNW) 12:43:13 145.935 - 145.965
SPROUT 21 Aug 12:38:58 12:41:42 17° 93° (E) 12:44:25 437.525
QB50P2 21 Aug 12:41:18 12:45:18 42° 261° (W) 12:49:19 145.880/145.840
EO-79 21 Aug 12:41:46 12:45:49 46° 261° (W) 12:49:53 145.935-145.965
M-CUBED/EXP-1 PRIME 21 Aug 12:45:45 12:48:54 19° 263° (W) 12:52:10 437.505
ISS 21 Aug 12:46:40 12:48:56 17° 346° (NNW) 12:51:11 437.550
nSIGHT-1 21 Aug 12:54:42 12:56:48 16° 348° (NNW) 12:58:54 .
Gurwin Techsat 1B 21 Aug 12:55:44 12:59:21 19° 62° (ENE) 13:02:57 435.225
Tancredo 1 21 Aug 13:07:55 13:08:51 11° 3° (N) 13:09:48 437.200
BUGSAT 1 21 Aug 13:09:18 13:13:22 75° 76° (ENE) 13:17:26 437.445
DUCHIFAT 1 21 Aug 13:11:48 13:15:22 27° 264° (W) 13:18:57 145.980
Oscar 19 21 Aug 13:16:31 13:21:19 41° 70° (ENE) 13:26:10 437.125/150
RS-15 21 Aug 13:19:04 13:31:00 53° 314° (NW) 13:43:01 29.354- 29.394
50 SAT 21 Aug 13:21:37 13:22:38 11° 92° (E) 13:23:39 437.505
BEESAT 3 21 Aug 13:29:16 13:32:32 23° 47° (NE) 13:35:44 437.485
AO-85 21 Aug 13:36:01 13:39:17 21° 46° (NE) 13:42:44 145.980
BEESAT 2 21 Aug 13:44:56 13:47:04 14° 41° (NE) 13:49:12 435.950
UKube-1 21 Aug 13:48:41 13:50:51 14° 92° (E) 13:53:01 .
AO-7 21 Aug 13:58:21 14:04:25 23° 52° (NE) 14:10:28 .
ESTCUBE 1 21 Aug 14:06:45 14:09:29 16° 297° (WNW) 14:12:12 437.505/2401.250
VELOX 1 21 Aug 14:09:46 14:14:08 61° 286° (WNW) 14:18:28 145.980
DX 1 21 Aug 14:09:54 14:13:55 36° 98° (E) 14:17:55 434.975-435.025
SPROUT 21 Aug 14:13:47 14:17:46 41° 288° (WNW) 14:21:44 437.525
ISS 21 Aug 14:24:33 14:26:24 14° 6° (N) 14:28:14 437.550
nSIGHT-1 21 Aug 14:32:16 14:34:10 14° 8° (N) 14:36:04 .
Gurwin Techsat 1B 21 Aug 14:33:33 14:38:48 60° 259° (W) 14:44:04 435.225
ITAMSAT 1 21 Aug 14:38:47 14:42:20 19° 62° (ENE) 14:45:53 435.822/435.867
Tancredo 1 21 Aug 14:42:30 14:44:51 22° 23° (NNE) 14:47:13 437.200
50 SAT 21 Aug 14:52:20 14:55:29 37° 287° (WNW) 14:58:35 437.505
Oscar 19 21 Aug 14:56:40 15:00:46 24° 266° (W) 15:04:54 437.125/150
ITUPSAT 1 21 Aug 15:06:11 15:06:26 10° 89° (E) 15:06:41 437.325
BEESAT 3 21 Aug 15:06:33 15:10:10 33° 245° (WSW) 15:13:42 437.485
YUBILEINY 21 Aug 15:15:30 15:22:27 27° 82° (E) 15:29:22 435.215
AO-85 21 Aug 15:15:41 15:19:53 49° 242° (WSW) 15:24:24 145.980
BEESAT 2 21 Aug 15:21:16 15:25:20 76° 239° (WSW) 15:29:19 435.950
UKube-1 21 Aug 15:22:58 15:27:10 52° 288° (WNW) 15:31:21 .
RS-15 21 Aug 15:37:44 15:47:19 25° 345° (NNW) 15:56:47 29.354- 29.394
MOZHAYETS 4 21 Aug 15:44:19 15:48:04 24° 94° (E) 15:51:48
DX 1 21 Aug 15:46:38 15:49:52 21° 294° (WNW) 15:53:05 434.975-435.025
AO-7 21 Aug 15:47:46 15:56:10 87° 252° (WSW) 16:04:36 .
ISS 21 Aug 16:00:39 16:03:38 32° 26° (NNE) 16:06:36 437.550
BEESAT 21 Aug 16:05:22 16:09:57 45° 100° (E) 16:14:30 436.000
nSIGHT-1 21 Aug 16:08:12 16:11:16 37° 28° (NNE) 16:14:18 .
ITAMSAT 1 21 Aug 16:16:13 16:21:20 58° 259° (W) 16:26:28 435.822/435.867
Tancredo 1 21 Aug 16:17:22 16:20:11 47° 220° (SW) 16:22:58 437.200
ITUPSAT 1 21 Aug 16:40:01 16:44:50 82° 283° (WNW) 16:49:36 437.325
CUTE-I 21 Aug 16:56:00 16:56:18 10° 56° (NE) 16:56:38 437.470
YUBILEINY 21 Aug 17:09:48 17:18:31 65° 281° (W) 17:27:14 435.215
DOVE 4 21 Aug 17:11:43 17:16:39 41° 71° (ENE) 17:21:27 437.250
MOZHAYETS 4 21 Aug 17:21:06 17:25:15 34° 290° (WNW) 17:29:24
KKS-1 21 Aug 17:27:26 17:31:02 24° 95° (E) 17:34:37 437.445
LilacSat-2 21 Aug 17:28:09 17:30:28 16° 66° (ENE) 17:32:50 437.200
XW-2D 21 Aug 17:31:20 17:33:45 17° 67° (ENE) 17:36:11 145.860 - 145.880
NUDT-PHONESAT 21 Aug 17:35:34 17:37:14 13° 65° (ENE) 17:38:55 437.300
ISS 21 Aug 17:37:07 17:40:07 33° 223° (SW) 17:43:05 437.550
XW-2B 21 Aug 17:41:54 17:44:45 21° 68° (ENE) 17:47:38 145.730 - 145.750
CUBESAT XI-V 21 Aug 17:42:19 17:47:03 84° 101° (E) 17:51:46 437.345
BEESAT 21 Aug 17:43:56 17:47:22 20° 296° (WNW) 17:50:48 436.000
nSIGHT-1 21 Aug 17:44:45 17:47:32 26° 225° (SW) 17:50:18 .
AO-7 21 Aug 17:44:51 17:49:58 17° 270° (W) 17:55:06 .
RS-15 21 Aug 17:55:33 18:05:30 27° 21° (NNE) 18:15:06 29.354- 29.394
XW-2C 21 Aug 18:00:22 18:03:46 35° 72° (ENE) 18:07:14 145.795 - 145.815
STARS 21 Aug 18:03:55 18:07:29 24° 95° (E) 18:11:02 437.465
XW-2F 21 Aug 18:11:42 18:15:16 45° 74° (ENE) 18:18:53 145.980 - 146.000
CUTE-I 21 Aug 18:30:03 18:35:23 72° 74° (ENE) 18:40:44 437.470
HO-68 21 Aug 18:30:48 18:37:02 34° 62° (ENE) 18:43:18 435.675
KAITUO 1B 21 Aug 18:35:26 18:39:07 73° 76° (ENE) 18:42:51 145.475/437.950
O/OREOS (USA 219) 21 Aug 18:39:46 18:42:53 18° 55° (NE) 18:45:58 437.305
DOVE 4 21 Aug 18:50:03 18:54:23 25° 266° (W) 18:58:38 437.250
CUTE 1.7 + AOD 2 21 Aug 18:50:37 18:54:07 26° 69° (ENE) 18:57:38 437.475
LilacSat-2 21 Aug 19:00:58 19:04:27 35° 262° (W) 19:07:59 437.200
KKS-1 21 Aug 19:03:42 19:07:35 31° 291° (WNW) 19:11:27 437.445
UWE-3 21 Aug 19:03:47 19:04:41 11° 63° (ENE) 19:05:36 435.000/436.395/437.385
XW-2D 21 Aug 19:04:15 19:07:39 33° 263° (W) 19:11:07 145.860 - 145.880
NUDT-PHONESAT 21 Aug 19:07:14 19:10:43 42° 261° (W) 19:14:15 437.300
CUBEBUG 2 21 Aug 19:10:08 19:13:25 22° 68° (ENE) 19:16:39 437.445
YUBILEINY 21 Aug 19:13:50 19:17:18 13° 304° (NW) 19:20:46 435.215
XW-2B 21 Aug 19:15:38 19:18:47 25° 264° (W) 19:21:59 145.730 - 145.750
CUBESAT XI-V 21 Aug 19:22:19 19:23:42 11° 300° (WNW) 19:25:05 437.345
XW-2C 21 Aug 19:35:52 19:38:05 15° 268° (W) 19:40:20 145.795 - 145.815
SEEDS 21 Aug 19:36:11 19:40:15 50° 74° (ENE) 19:44:22 437.485
STARS 21 Aug 19:40:01 19:43:48 30° 291° (WNW) 19:47:35 437.465
ZACube-1 21 Aug 19:40:08 19:42:27 15° 65° (ENE) 19:44:46 437.345
XW-2F 21 Aug 19:48:19 19:49:39 12° 269° (W) 19:50:59 145.980 - 146.000
XW-2A 21 Aug 19:56:09 19:59:27 74° 76° (ENE) 20:02:47 145.665 - 145.685
AO-73 21 Aug 19:59:53 20:03:01 21° 68° (ENE) 20:06:09 145.935
RS-15 21 Aug 20:08:56 20:21:00 66° 51° (NE) 20:32:22 29.354- 29.394
STRAND 1 21 Aug 20:11:49 20:16:36 39° 98° (E) 20:21:21 437.568
CUTE-I 21 Aug 20:13:10 20:15:57 14° 270° (W) 20:18:43 437.470
HO-68 21 Aug 20:17:41 20:24:31 48° 260° (W) 20:31:24 435.675
O/OREOS (USA 219) 21 Aug 20:18:10 20:22:34 50° 253° (WSW) 20:26:58 437.305
AAUSAT CUBESAT 2 21 Aug 20:19:03 20:23:11 70° 76° (ENE) 20:27:21 437.432
CUTE 1.7 + AOD 2 21 Aug 20:26:15 20:29:51 27° 265° (W) 20:33:28 437.475
UWE-3 21 Aug 20:36:24 20:40:35 69° 259° (W) 20:44:44 435.000/436.395/437.385
Oscar 11 21 Aug 20:42:46 20:46:53 48° 73° (ENE) 20:51:03 .
CUBEBUG 2 21 Aug 20:46:05 20:49:52 31° 263° (W) 20:53:37 437.445
SEEDS 21 Aug 21:14:10 21:16:14 13° 270° (W) 21:18:18 437.485
ZACube-1 21 Aug 21:14:21 21:18:21 47° 261° (W) 21:22:21 437.345
DELFI C3 21 Aug 21:17:26 21:20:48 26° 69° (ENE) 21:24:11 145.870
AO-73 21 Aug 21:35:25 21:39:05 30° 264° (W) 21:42:45 145.935
EO-88 21 Aug 21:45:17 21:48:30 30° 71° (ENE) 21:51:44 145.990 - 145.960
FO-29 21 Aug 21:47:57 21:52:31 26° 93° (E) 21:56:50 435.910
STRAND 1 21 Aug 21:51:26 21:55:33 25° 295° (WNW) 21:59:40 437.568
UNISAT 6 21 Aug 22:11:07 22:14:04 18° 93° (E) 22:17:02 437.425
Oscar 11 21 Aug 22:20:53 22:23:18 15° 269° (W) 22:25:43 .
SO-50 21 Aug 22:22:06 22:24:50 16° 110° (ESE) 22:27:33 436.795
RS-15 21 Aug 22:22:16 22:32:44 38° 254° (WSW) 22:42:44 29.354- 29.394
Max Valier Satellite 21 Aug 22:26:30 22:30:05 56° 260° (W) 22:33:41 145.860
TIGRISAT 21 Aug 22:45:05 22:49:06 37° 98° (E) 22:53:11 435.000
PCSat 21 Aug 22:45:46 22:51:00 53° 114° (ESE) 22:56:17 145.827
DELFI C3 21 Aug 22:52:19 22:55:30 23° 265° (W) 22:58:45 145.870
LO-87 21 Aug 23:11:48 23:15:14 45° 74° (ENE) 23:18:40 145.935 - 145.965
EO-88 21 Aug 23:19:55 23:22:13 16° 267° (W) 23:24:33 145.990 - 145.960
ESTCUBE 1 21 Aug 23:27:51 23:32:10 48° 72° (ENE) 23:36:33 437.505/2401.250
FO-29 21 Aug 23:32:42 23:37:46 37° 293° (WNW) 23:42:32 435.910
SPROUT 21 Aug 23:33:02 23:35:10 14° 63° (ENE) 23:37:18 437.525
VELOX 1 21 Aug 23:33:15 23:34:59 12° 61° (ENE) 23:36:44 145.980
AIST 2D 21 Aug 23:33:38 23:35:38 14° 92° (E) 23:37:39 435.315
PRISM 21 Aug 23:33:56 23:38:05 82° 286° (WNW) 23:42:10 437.425
UNISAT 6 21 Aug 23:46:53 23:50:55 40° 288° (WNW) 23:55:01 437.425
SO-50 22 Aug 00:00:24 00:04:49 56° 306° (NW) 00:09:16 436.795
NANOSAT C BR1 22 Aug 00:06:24 00:08:35 14° 91° (E) 00:10:47 145.865
POLYITAN 1 22 Aug 00:11:28 00:14:22 18° 93° (E) 00:17:16 437.675
TIGRISAT 22 Aug 00:22:27 00:25:33 20° 294° (WNW) 00:28:40 435.000
M-CUBED/EXP-1 PRIME 22 Aug 00:23:22 00:27:14 32° 101° (E) 00:30:51 437.505
QB50P2 22 Aug 00:26:04 00:29:44 29° 96° (E) 00:33:24 145.880/145.840
EO-79 22 Aug 00:26:28 00:30:02 26° 96° (E) 00:33:34 145.935-145.965
PCSat 22 Aug 00:30:15 00:34:42 25° 312° (NW) 00:39:10 145.827
NO-84 22 Aug 00:42:52 00:44:56 17° 129° (SE) 00:46:56 435.350 FM
UKube-1 22 Aug 00:43:42 00:45:38 13° 62° (ENE) 00:47:33 .
LO-87 22 Aug 00:48:03 00:48:53 11° 269° (W) 00:49:44 145.935 - 145.965
DUCHIFAT 1 22 Aug 00:54:54 00:58:53 43° 99° (E) 01:02:53 145.980
DX 1 22 Aug 01:05:13 01:09:06 32° 69° (ENE) 01:13:01 434.975-435.025
AIST 2D 22 Aug 01:05:43 01:08:56 32° 288° (WNW) 01:12:08 435.315
VELOX 1 22 Aug 01:06:23 01:10:49 71° 258° (WSW) 01:15:18 145.980
SPROUT 22 Aug 01:06:24 01:10:35 55° 260° (W) 01:14:47 437.525
ESTCUBE 1 22 Aug 01:06:27 01:09:14 16° 268° (W) 01:12:01 437.505/2401.250
50 SAT 22 Aug 01:22:30 01:25:53 66° 75° (ENE) 01:29:17 437.505
YUBILEINY 22 Aug 01:26:27 01:29:49 12° 56° (NE) 01:33:10 435.215
Oscar 19 22 Aug 01:29:27 01:32:12 14° 90° (E) 01:34:57 437.125/150
NANOSAT C BR1 22 Aug 01:40:31 01:44:33 48° 287° (WNW) 01:48:36 145.865
SO-50 22 Aug 01:45:56 01:46:17 10° 327° (NNW) 01:46:37 436.795
POLYITAN 1 22 Aug 01:46:22 01:50:15 37° 289° (WNW) 01:54:09 437.675
M-CUBED/EXP-1 PRIME 22 Aug 01:57:59 02:01:27 23° 299° (WNW) 02:04:44 437.505
QB50P2 22 Aug 02:02:01 02:05:23 24° 292° (WNW) 02:08:45 145.880/145.840
EO-79 22 Aug 02:02:13 02:05:42 26° 292° (WNW) 02:09:11 145.935-145.965
ITUPSAT 1 22 Aug 02:11:43 02:14:02 14° 61° (ENE) 02:16:20 437.325
UKube-1 22 Aug 02:16:49 02:21:06 63° 258° (WSW) 02:25:25 .
NO-84 22 Aug 02:19:28 02:22:07 32° 325° (NW) 02:24:44 435.350 FM
BUGSAT 1 22 Aug 02:26:03 02:30:01 61° 286° (WNW) 02:34:00 437.445
DUCHIFAT 1 22 Aug 02:31:34 02:34:12 16° 295° (WNW) 02:36:50 145.980
DX 1 22 Aug 02:41:49 02:45:18 23° 265° (W) 02:48:49 434.975-435.025
MOZHAYETS 4 22 Aug 02:46:20 02:49:54 23° 67° (ENE) 02:53:30
Gurwin Techsat 1B 22 Aug 02:49:41 02:54:54 54° 100° (E) 03:00:05 435.225
Oscar 19 22 Aug 03:06:48 03:12:00 69° 287° (WNW) 03:17:10 437.125/150
BEESAT 22 Aug 03:11:29 03:16:05 52° 72° (ENE) 03:20:43 436.000
YUBILEINY 22 Aug 03:19:56 03:28:36 65° 79° (E) 03:37:12 435.215
ITUPSAT 1 22 Aug 03:46:31 03:51:15 71° 258° (WSW) 03:56:01 437.325
AO-7 22 Aug 03:50:06 03:57:16 31° 96° (E) 04:04:21 .
MOZHAYETS 4 22 Aug 04:22:44 04:26:52 34° 263° (W) 04:31:02
KKS-1 22 Aug 04:25:28 04:29:01 24° 67° (ENE) 04:32:34 437.445
ITAMSAT 1 22 Aug 04:28:58 04:34:00 49° 100° (E) 04:38:59 435.822/435.867
Gurwin Techsat 1B 22 Aug 04:30:36 04:34:25 20° 297° (WNW) 04:38:13 435.225
CUBESAT XI-V 22 Aug 04:45:07 04:49:46 81° 76° (ENE) 04:54:28 437.345
BEESAT 22 Aug 04:51:13 04:54:10 16° 268° (W) 04:57:06 436.000
BEESAT 3 22 Aug 04:55:32 04:59:12 36° 116° (ESE) 05:02:55 437.485
STARS 22 Aug 05:00:32 05:03:59 23° 67° (ENE) 05:07:26 437.465
BEESAT 2 22 Aug 05:13:19 05:16:02 18° 111° (ESE) 05:18:47 435.950
YUBILEINY 22 Aug 05:17:50 05:24:39 27° 278° (W) 05:31:28 435.215
AO-85 22 Aug 05:30:18 05:34:07 50° 118° (ESE) 05:37:55 145.980
AO-7 22 Aug 05:42:16 05:50:24 59° 295° (WNW) 05:58:28 .
KKS-1 22 Aug 06:01:21 06:05:23 33° 263° (W) 06:09:26 437.445
ITAMSAT 1 22 Aug 06:09:16 06:13:06 21° 297° (WNW) 06:16:54 435.822/435.867
BEESAT 3 22 Aug 06:33:37 06:36:51 23° 313° (NW) 06:40:06 437.485
LilacSat-2 22 Aug 06:34:11 06:37:17 23° 95° (E) 06:40:23 437.200
STARS 22 Aug 06:36:09 06:40:08 33° 263° (W) 06:44:07 437.465
XW-2D 22 Aug 06:36:40 06:39:47 23° 95° (E) 06:42:54 145.860 - 145.880
NUDT-PHONESAT 22 Aug 06:38:06 06:40:34 17° 93° (E) 06:43:02 437.300
XW-2B 22 Aug 06:47:32 06:50:57 30° 97° (E) 06:54:21 145.730 - 145.750
CUTE-I 22 Aug 06:47:35 06:52:07 28° 95° (E) 06:56:38 437.470
DOVE 4 22 Aug 06:48:19 06:52:52 80° 285° (WNW) 06:57:09 437.250
BEESAT 2 22 Aug 06:49:39 06:53:27 41° 308° (NW) 06:57:19 435.950
SO-50 22 Aug 06:51:54 06:55:05 18° 42° (NE) 06:58:18 436.795
XW-2C 22 Aug 07:06:24 07:10:11 53° 100° (E) 07:13:57 145.795 - 145.815
AO-85 22 Aug 07:12:14 07:14:46 17° 317° (NW) 07:17:21 145.980
NO-84 22 Aug 07:15:23 07:17:28 17° 29° (NNE) 07:19:39 435.350 FM
XW-2F 22 Aug 07:17:23 07:21:12 69° 100° (E) 07:25:02 145.980 - 146.000
STRAND 1 22 Aug 07:27:30 07:32:30 57° 72° (ENE) 07:37:30 437.568
